星链-4207 (STARLINK-4207 )

导读 | 豆包AI

STARLINK-4207是美国SpaceX星链项目的低轨互联网卫星,于2022年6月17日发射升空,隶属星链4-16批次。它运行在约550公里的近地轨道,质量约297kg,依托相控阵天线与星间链路技术,为全球偏远地区、海洋航空等场景提供高速低延迟互联网接入,助力弥合数字鸿沟,不过该卫星的大规模部署也引发了天文观测与太空安全方面的争议。

基本信息
目录编号:
52871
目录名称:
STARLINK-4207
国际标识:
2022-062AT
轨道中心:
EARTH
卫星名称:
星链-4207
卫星全名:
星链-4207 (STARLINK-4207 )
卫星状态:
在轨 (已飞行1413 天)
发射日期:
2022-06-17 UTC
国别 :
美国 (US)
星等 :
--
轨道信息
数据来源 国际轨道数据 AOE轨道数据
星历时间 2026-04-30T16:44:10+0800
13小时前
查看轨道信息
2026-04-26T03:00:00+0800
5天前
查看轨道信息
半长轴 6917.89km 6917.887km
偏心率 0.0001222 0.0001154
轨道倾角 53.217° 53.215°
近地点辐角 83.486° 85.634°
升交点赤经 142.147° 162.673°
平近点角 276.627° 264.872°
近地点 538.907km 538.951km
远地点 540.599km 540.549km
周期 95.438分钟 95.438分钟
每日圈数 15.088369 15.08838
详细信息
固有亮度:
5
最大亮度:
2.5
卫星平台:
Starlink v1.5
覆盖范围:
全球
运营商:
太空探索技术公司
运营商所在国:
美国
制造商(研发单位):
太空探索技术公司
制造商所在国:
美国
使用方式:
暂无
卫星简介
星链(Starlink)计划是由太空探索技术公司(SpaceX)提出的一个巨型低轨卫星互联网星座项目,计划在2019年至2024年间在太空搭建由约1.2万颗卫星组成的“星链”网络,其中1584颗将部署在地球上空550千米处的近地轨道,并从2020年开始工作。该卫星仍在工作。
2D轨道图
3D轨道图
轨道高度分析图
轨道倾角分析图
轨道综合分析图
查看轨道综合分析图